Погода в Миядзаки

Япония     38°38′11″N   140°42′04″E
темп.,
°C
ветер,
м/с
пор.,
м/с
влажн.,
%
обл.,
%
осадки,
мм/ч
давл.,
гПа
погр.,
м
29 июня, ср
ср2900:00+21з2287100 0.0 101035
03:00+20зсз358492 0.0 1009125
06:00+23з4147276 0.0 10091060
09:00+28зсз71661100 0.0 10091694
12:00+29зсз81754100 0.0 10091744
15:00+28зсз71660100 0.0 10091604
18:00+25зсз5137199 0.0 10101207
21:00+24з6166698 0.0 10111245
30 июня, чт
чт3000:00+24з617669 0.0 10101254
03:00+22з61873100 0.0 10101304
06:00+24зсз81977100 0.0 10111401
09:00+25зсз7177657 0.0 10111244
12:00+27зсз7156791 0.0 10121343
15:00+26зсз7157198 0.1 10121139
18:00+24зсз51379100 0.0 10131026
21:00+22з3108685 0.0 1014613
1 июля, пт
пт100:00+20з349610 0.0 1015127
03:00+20зсз349713 0.0 1015100
06:00+22з35850 0.0 1016249
09:00+27з48607 0.0 10161160
12:00+30зсз475391 0.0 10151654
15:00+30зсз46515 0.1 10151511
18:00+25вюв01820 0.4 101558
21:00+21ссв01960 0.4 101711
2 июля, сб
сб200:00+20зсз11963 0.0 101611
03:00+20зсз21950 0.0 101622
06:00+22зсз12870 0.0 1016111
09:00+29зюз145426 0.0 10151065
12:00+32з35436 0.0 10141688
15:00+32зсз454014 0.0 10131733
18:00+27сз227091 0.0 101360
21:00+22зсз228571 0.0 101530
3 июля, вс
вс300:00+21зсз22855 0.0 101438
03:00+20зсз3483100 0.0 101366
06:00+22зсз3477100 0.0 1013128
09:00+29зсз3548100 0.0 1013885
12:00+32зсз353710 0.0 10111690
15:00+32зсз4539100 0.0 10101552
18:00+26зсз3469100 0.0 101085
21:00+21зсз3381100 0.0 101262